Погода в Туре

Погода в Туре : погода сейчас, прогноз погоды и архив. Всё, что Вы хотите узнать о погоде в Туре!

Хотите узнать прогноз погоды в Туре? Тогда Вам сюда: Погода в Туре

Поиск расширенной информации на нашем сайте:

Полезная информация: Мини погрузчик мксм 800 купить - купить мини погрузчики мксм-800.

Другие новости

Новости СМИ2

Главная страница сайта

Новости сайта

03.07.2017

Напоминаем, что на нашем специализированном сайте Метеоцентр.Азия вы можете получить высокодетализированные автоматические прогнозы погоды по пунктам России, СНГ и мира в авиационном формате (включающие направление и скорость ветра, видимость, явления погоды, количество и форму облачности, нижнюю и верхнюю границу облачности).

Рекомендуем: авиатуры в германию

Погода в Туре - сегодня

Время (UTC), дата Ветер
(°,м/с) 
Видим.   Явления Облачность Т
(°С)
Тd
(°С)
f(%) Тe
(°С)
Pmin
(гПа)
dP
(гПа)
Po
(мм)
O2
(г/м3)
Тmin Tmax R s Состояние
почвы
15 19.11.17 140 (ЮВ) н/о  снег  10/0 средняя 
[Ac As]
-28 -31.2 74 -29  1014.7  -2  741  335           
18 19.11.17 тихо ()   н/о  слаб. снег  10/0 средняя 
[Ac As]
-26.3 -29.4 75 -26  1013.3  -1.1  740  332           
21 19.11.17 тихо ()   н/о  слаб. снег  10/0 средняя 
[Ac As]
-24.3 -26.8 80 -24  1013.3  0.2  740  329           
00 20.11.17 150 (ЮВ) н/о  слаб. снег  10/0 средняя 
[Ac As]
-23.4 -25.9 80 -24  1014.2  0.9  741  328  -29    43  равномерный
сухой снег
100% 
03 20.11.17 тихо ()   10 км  слаб. снег  10/0 средняя, верхняя 
[Ac As|Cs]
-22.1 -24.7 79 -22  1015.2  1.1  742  327           
06 20.11.17 020 (С) 20000 м  слаб. снег  10/0 средняя, верхняя 
[Ac As|Cs]
-18.4 -22.5 70 -21  1016.7  1.9  743  323           
09 20.11.17 тихо ()   н/о  слаб. снег  10/0 средняя, верхняя 
[Ac As|Cs]
-19.6 -23.7 70 -20  1019.6  2.6  745  325           
12 20.11.17 360 (С) н/о  слаб. снег  10/0 средняя, верхняя 
[Ac As|Cs]
-21.6 -25.6 70 -26  1022.4  2.6  747  329    -18.4  0.4     
15 20.11.17 360 (С) н/о  слаб. снег  10/0 верхняя 
[Cs]
-22.9 -26.2 74 -28  1025.1  2.4  749  331           
18 20.11.17 260 (З) н/о  слаб. снег  10/0 верхняя 
[Cs]
-27.2 -30.3 75 -28  1027.3  1.8  750  338           
21 20.11.17 270 (З) н/о  слаб. снег  10/0 верхняя 
[Cs]
-30 -33 75 -31  1029.3  1.7  752  342           
00 21.11.17 160 (Ю) н/о  {снег}  3/0 верхняя 
[Ci fib]
-33.3 -36.3 74 -34  1031.2  1.4  753  347  -33.3    0.3  42  равномерный
сухой снег
100% 
03 21.11.17 тихо ()   20000 м    3/0 верхняя 
[Ci fib]
-34.5 -37.4 75 -35  1032.3  0.9  753  349           
06 21.11.17 310 (СЗ) 20000 м    3/0 верхняя 
[Ci fib]
-33.8 -37.5 69 -35  1033.3  1.1  754  349           
09 21.11.17 300 (СЗ) н/о    1/0 верхняя 
[Ci fib]
-34.8 -37.7 75 -39  1034.4  755  351           
12 21.11.17 310 (СЗ) н/о    ясно 
-37.4 -40.8 70 -38  1035.9  1.1  756  355    -33.3       
15 21.11.17 тихо ()   н/о    ясно 
-38.5 -42 69 -39  1036.7  0.5  756  357           
18 21.11.17 тихо ()   н/о  дымка  ясно 
-40 -43.4 70 -40  1037.7  0.9  757  359           
21 21.11.17 тихо ()   н/о  дымка  ясно 
-41.1 -44.4 70 -41  1038.2  0.4  757  361           
00 22.11.17 280 (З) н/о    10/0 средняя 
[Ac As]
-37.6 -41.2 69 -44  1037.8  757  356  -41      42  равномерный
сухой снег
100% 
03 22.11.17 270 (З) 10 км  слаб. снег  10/0 средняя 
[Ac As]
-36.1 -39.7 69 -42  1038.4  0.8  758  354           
06 22.11.17 280 (З) 10 км  слаб. снег  10/0 средняя 
[Ac As]
-34 -37.5 71 -40  1038.7  0.5  758  351           
09 22.11.17 280 (З) н/о  {снег}  10/0 средняя 
[Ac As]
-32 -35 75 -38  1039  0.6  759  348           
12 22.11.17 280 (З) н/о  {снег}  10/0 средняя 
[Ac As]
-30.4 -33.4 75 -36  1039.5  0.7  759  346    -30.4  0.0     
15 22.11.17 290 (З) н/о    8/0 средняя, верхняя 
[Ac trans|Ci fib]
-29.2 -32.2 75 -35  1038.7  -0.7  759  344           
Время (UTC), дата Ветер
(°,м/с) 
Видим.   Явления Облачность Т
(°С)
Тd
(°С)
f(%) Тe
(°С)
Pmin
(гПа)
dP
(гПа)
Po
(мм)
O2
(г/м3)
Тmin Tmax R s Состояние
почвы

Для получения пояснительной информации подведите курсор к названию столбца.

ПОГОДА в Туре - архив

Всё, что Вы хотите узнать о погоде в Туре - удобно и подробно!

Выберите нужную дату (начиная с 1 января 2015* года) и нажмите кнопку "Найти".
Будут отображены архивные сводки погоды по пункту Тура, начиная с указанной даты.


Отображать данные в формате CSV (для использования в таблицах Excel)


Внимание! Наш архив погоды предназначен исключительно для личного некоммерческого использования в познавательных целях. Если Вам необходимы официальные справки о состоянии погоды (для производственных, юридических, коммерческих и т.п. целей), обращайтесь в органы Росгидромета.

*Примечание: данная дата относится к архиву по метеостанциям СССР (Россия, СНГ, Балтия).
Архив по метеостанциям Зарубежной Европы и Азии (кроме Китая) хранится 10 дней, по другим регионам земного шара (Китай, Африка, Америка, Австралия, Океания) - 1 день.

Тура - район местоположения метеостанции


Название, широта, долгота, высота метеостанции:
Тура 64.3°ш. 100.2°д. 168 м над ур. моря [Российская Федерация]

Дополнительная информация

В oтличие oт бoльшинства пoгoдных сайтoв мы публикуем пoдрoбную метеoинфoрмацию в детальнoм прoфессиoнальнoм фoрмате.

Характеристики температуры и влажнoсти вoздуха измеряются на высoте 2 м в тени вдали oт зданий и деревьев.
Скoрoсть ветра измеряется на высoте 10 м (на урoвне рoста челoвека скoрoсть ветра ниже в 1.5-2 раза). Если метеoстанция нахoдится в гoрoде или в лесу, тo скoрoсть ветра занижена на 2-4 м/с пo сравнению с oткрытым местoм. Скoрoсть ветра над акватoриями крупных рек и oзёр, а также на вершинах хoлмoв на 2-5 м/с выше, чем в oбычных услoвиях.
Атмoсфернoе давление в разных тoчках местнoсти мoжет значительнo oтличаться oт давления на метеoстанции, в зависимoсти oт услoвий рельефа (при пoдъёме на 10 м давление пoнижается примернo на 1 мм рт.ст.).